Time,TemperatureF,DewpointF,PressureIn,WindDirection,WindDirectionDegrees,WindSpeedMPH,WindSpeedGustMPH,Humidity,HourlyPrecipIn,Conditions,Clouds,dailyrainin,SoftwareType,DateUTC
2013-02-26 00:00:00,29.8,27.3,30.25,NW,310,0.0,0.0,90,13.88,,,68.92,meteohub,2013-02-26 05:00:00,
2013-02-26 00:01:00,29.8,27.3,30.25,NW,310,0.0,0.0,90,13.88,,,68.92,meteohub,2013-02-26 05:01:00,
2013-02-26 00:02:00,29.8,27.3,30.25,NW,310,0.0,0.0,90,13.88,,,68.92,meteohub,2013-02-26 05:02:00,
2013-02-26 00:07:00,29.7,27.1,30.25,NW,310,0.0,0.0,90,13.32,,,69.56,meteohub,2013-02-26 05:07:00,
2013-02-26 00:12:00,29.7,27.3,30.25,NW,310,0.0,0.0,91,13.64,,,71.00,meteohub,2013-02-26 05:12:00,
2013-02-26 00:17:00,29.5,27.1,30.26,NW,310,0.0,0.0,91,13.92,,,72.48,meteohub,2013-02-26 05:17:00,
2013-02-26 00:22:00,29.5,27.5,30.25,NW,310,0.0,0.0,92,13.56,,,73.32,meteohub,2013-02-26 05:22:00,
2013-02-26 00:28:00,29.5,27.1,30.25,NW,310,0.0,0.0,91,13.68,,,74.64,meteohub,2013-02-26 05:28:00,
2013-02-26 00:33:00,29.5,27.5,30.25,NW,310,0.0,0.0,92,13.44,,,75.48,meteohub,2013-02-26 05:33:00,
2013-02-26 00:38:00,29.1,26.8,30.25,NW,310,0.0,0.0,91,13.56,,,76.80,meteohub,2013-02-26 05:38:00,
2013-02-26 00:43:00,28.9,27.0,30.25,NW,310,0.0,0.0,92,13.92,,,78.36,meteohub,2013-02-26 05:43:00,
2013-02-26 00:48:00,28.8,26.8,30.25,NW,310,0.0,0.0,92,13.52,,,79.08,meteohub,2013-02-26 05:48:00,
2013-02-26 00:53:00,28.8,26.8,30.25,NW,310,0.0,0.0,92,13.80,,,80.56,meteohub,2013-02-26 05:53:00,
2013-02-26 00:58:00,28.6,26.6,30.25,NW,310,0.0,0.0,92,13.32,,,81.28,meteohub,2013-02-26 05:58:00,
2013-02-26 01:04:00,28.6,26.8,30.25,NW,310,0.0,0.0,93,13.52,,,82.72,meteohub,2013-02-26 06:04:00,
2013-02-26 01:09:00,28.4,26.6,30.24,NW,310,0.0,0.0,93,13.76,,,84.04,meteohub,2013-02-26 06:09:00,
2013-02-26 01:14:00,28.2,26.2,30.24,NW,310,0.0,0.0,92,13.28,,,84.76,meteohub,2013-02-26 06:14:00,
2013-02-26 01:19:00,28.0,26.2,30.24,NW,310,0.0,0.0,93,13.60,,,86.20,meteohub,2013-02-26 06:19:00,
2013-02-26 01:24:00,28.0,26.2,30.24,NW,310,0.0,0.0,93,13.24,,,87.04,meteohub,2013-02-26 06:24:00,
2013-02-26 01:29:00,27.9,26.1,30.24,NW,310,0.0,0.0,93,13.48,,,88.48,meteohub,2013-02-26 06:29:00,
2013-02-26 01:34:00,27.9,26.1,30.24,NW,310,0.0,0.0,93,13.72,,,89.80,meteohub,2013-02-26 06:34:00,
2013-02-26 01:40:00,27.9,26.1,30.24,NW,310,0.0,0.0,93,13.32,,,90.60,meteohub,2013-02-26 06:40:00,
2013-02-26 01:45:00,27.7,25.9,30.25,NW,310,0.0,0.0,93,13.68,,,93.40,meteohub,2013-02-26 06:45:00,
2013-02-26 01:50:00,27.7,25.9,30.25,NW,310,0.0,0.0,93,13.44,,,94.24,meteohub,2013-02-26 06:50:00,
2013-02-26 01:55:00,27.7,26.2,30.25,NW,310,0.0,0.0,94,13.68,,,95.68,meteohub,2013-02-26 06:55:00,
2013-02-26 02:00:00,27.7,26.2,30.27,NW,310,0.0,0.0,94,13.80,,,97.00,meteohub,2013-02-26 07:00:00,
2013-02-26 02:05:00,27.7,26.2,30.27,NW,310,0.0,0.0,94,13.56,,,97.84,meteohub,2013-02-26 07:05:00,
2013-02-26 02:10:00,27.9,26.4,30.27,NW,310,0.0,0.0,94,13.80,,,99.28,meteohub,2013-02-26 07:10:00,
2013-02-26 02:16:00,27.9,26.6,30.28,NW,310,0.0,0.0,95,13.32,,,99.99,meteohub,2013-02-26 07:16:00,
2013-02-26 02:21:00,27.9,26.6,30.27,NW,310,0.0,0.0,95,13.56,,,99.99,meteohub,2013-02-26 07:21:00,
2013-02-26 02:26:00,27.9,26.6,30.28,NW,310,0.0,0.0,95,13.80,,,99.99,meteohub,2013-02-26 07:26:00,
2013-02-26 02:31:00,27.9,26.6,30.28,NW,310,0.0,0.0,95,13.40,,,99.99,meteohub,2013-02-26 07:31:00,
2013-02-26 02:36:00,27.7,26.2,30.28,NW,310,0.0,0.0,94,13.68,,,99.99,meteohub,2013-02-26 07:36:00,
2013-02-26 02:41:00,27.7,26.2,30.28,NW,310,0.0,0.0,94,13.92,,,99.99,meteohub,2013-02-26 07:41:00,
2013-02-26 02:46:00,27.5,26.1,30.29,NW,310,0.0,0.0,94,13.56,,,99.99,meteohub,2013-02-26 07:46:00,
2013-02-26 02:52:00,27.7,26.4,30.29,NW,310,0.0,0.0,95,13.80,,,99.99,meteohub,2013-02-26 07:52:00,
2013-02-26 02:57:00,27.5,26.2,30.28,NW,310,0.0,0.0,95,13.32,,,99.99,meteohub,2013-02-26 07:57:00,
2013-02-26 03:02:00,27.7,26.4,30.28,NW,310,0.0,0.0,95,13.56,,,99.99,meteohub,2013-02-26 08:02:00,
2013-02-26 03:07:00,27.7,26.4,30.29,NW,310,0.0,0.0,95,13.92,,,99.99,meteohub,2013-02-26 08:07:00,
2013-02-26 03:12:00,27.9,26.6,30.28,NW,310,0.0,0.0,95,13.32,,,99.99,meteohub,2013-02-26 08:12:00,
2013-02-26 03:17:00,27.9,26.6,30.28,NW,310,0.0,0.0,95,13.56,,,99.99,meteohub,2013-02-26 08:17:00,
2013-02-26 03:22:00,27.9,26.6,30.28,NW,310,0.0,0.0,95,13.80,,,99.99,meteohub,2013-02-26 08:22:00,
2013-02-26 03:27:00,27.9,26.6,30.30,NW,310,0.0,0.0,95,13.44,,,99.99,meteohub,2013-02-26 08:27:00,
2013-02-26 03:32:00,28.0,26.8,30.29,NW,310,0.0,0.0,95,13.80,,,99.99,meteohub,2013-02-26 08:32:00,
2013-02-26 03:37:00,28.2,27.0,30.29,NW,310,0.0,0.0,95,13.32,,,99.99,meteohub,2013-02-26 08:37:00,
2013-02-26 03:42:00,28.4,27.1,30.29,NW,310,0.0,0.0,95,13.56,,,99.99,meteohub,2013-02-26 08:42:00,
2013-02-26 03:47:00,28.4,27.1,30.28,NW,310,0.0,0.0,95,13.80,,,99.99,meteohub,2013-02-26 08:47:00,
2013-02-26 03:52:00,28.6,27.3,30.28,NW,310,0.0,0.0,95,13.32,,,99.99,meteohub,2013-02-26 08:52:00,
2013-02-26 03:57:00,28.6,27.3,30.27,NW,310,0.0,0.0,95,13.68,,,99.99,meteohub,2013-02-26 08:57:00,
2013-02-26 04:02:00,28.6,27.3,30.28,NW,310,0.0,0.0,95,13.92,,,99.99,meteohub,2013-02-26 09:02:00,
2013-02-26 04:07:00,28.6,27.3,30.27,NW,310,0.0,0.0,95,13.44,,,99.99,meteohub,2013-02-26 09:07:00,
2013-02-26 04:12:00,28.8,27.5,30.28,NW,310,0.0,0.0,95,13.80,,,99.99,meteohub,2013-02-26 09:12:00,
2013-02-26 04:17:00,28.8,27.5,30.28,NW,310,0.0,0.0,95,13.20,,,99.99,meteohub,2013-02-26 09:17:00,
2013-02-26 04:22:00,28.8,27.5,30.28,NW,310,0.0,0.0,95,13.56,,,99.99,meteohub,2013-02-26 09:22:00,
2013-02-26 04:27:00,28.8,27.5,30.28,NW,310,0.0,0.0,95,13.72,,,99.99,meteohub,2013-02-26 09:27:00,
2013-02-26 04:32:00,28.9,27.7,30.28,NW,310,0.0,0.0,95,12.64,,,99.99,meteohub,2013-02-26 09:32:00,
2013-02-26 04:37:00,29.1,27.9,30.28,NW,310,0.0,0.0,95,12.52,,,99.99,meteohub,2013-02-26 09:37:00,
2013-02-26 04:42:00,29.1,27.9,30.28,NW,310,0.0,0.0,95,12.04,,,99.99,meteohub,2013-02-26 09:42:00,
2013-02-26 04:47:00,29.1,27.9,30.28,NW,310,0.0,0.0,95,12.20,,,99.99,meteohub,2013-02-26 09:47:00,
2013-02-26 04:52:00,29.1,27.9,30.28,NW,310,0.0,0.0,95,12.56,,,99.99,meteohub,2013-02-26 09:52:00,
2013-02-26 04:57:00,29.3,28.0,30.28,NW,310,0.0,0.0,95,12.20,,,99.99,meteohub,2013-02-26 09:57:00,
2013-02-26 05:02:00,29.5,28.2,30.29,NW,310,0.0,0.0,95,12.44,,,99.99,meteohub,2013-02-26 10:02:00,
2013-02-26 05:07:00,29.7,28.4,30.29,NW,310,0.0,0.0,95,11.96,,,99.99,meteohub,2013-02-26 10:07:00,
2013-02-26 05:12:00,29.7,28.4,30.29,NW,310,0.0,0.0,95,12.32,,,99.99,meteohub,2013-02-26 10:12:00,
2013-02-26 05:17:00,29.8,28.6,30.29,NW,310,0.0,0.0,95,12.56,,,99.99,meteohub,2013-02-26 10:17:00,
2013-02-26 05:22:00,29.8,28.6,30.29,NW,310,0.0,0.0,95,12.08,,,99.99,meteohub,2013-02-26 10:22:00,
2013-02-26 05:27:00,29.8,28.6,30.29,NW,310,0.0,0.0,95,12.52,,,99.99,meteohub,2013-02-26 10:27:00,
2013-02-26 05:32:00,29.8,28.6,30.30,NW,310,0.0,0.0,95,14.04,,,99.99,meteohub,2013-02-26 10:32:00,
2013-02-26 05:37:00,29.8,28.6,30.30,NW,310,0.0,0.0,95,13.56,,,99.99,meteohub,2013-02-26 10:37:00,
2013-02-26 05:42:00,29.8,28.6,30.29,NW,310,0.0,0.0,95,13.76,,,99.99,meteohub,2013-02-26 10:42:00,
2013-02-26 05:47:00,30.0,28.6,30.30,NW,310,0.0,0.0,94,13.40,,,99.99,meteohub,2013-02-26 10:47:00,
2013-02-26 05:52:00,30.0,28.6,30.30,NW,310,0.0,0.0,94,13.52,,,99.99,meteohub,2013-02-26 10:52:00,
2013-02-26 05:57:00,30.0,28.8,30.29,NW,310,0.0,0.0,95,13.76,,,99.99,meteohub,2013-02-26 10:57:00,
2013-02-26 06:02:00,30.0,28.6,30.29,NW,310,0.0,0.0,94,13.28,,,99.99,meteohub,2013-02-26 11:02:00,
2013-02-26 06:07:00,30.0,28.6,30.29,NW,310,0.0,0.0,94,13.56,,,99.99,meteohub,2013-02-26 11:07:00,
2013-02-26 06:12:00,30.0,28.6,30.29,NW,310,0.0,0.0,94,13.92,,,99.99,meteohub,2013-02-26 11:12:00,
2013-02-26 06:17:00,30.0,28.6,30.29,NW,310,0.0,0.0,94,13.44,,,99.99,meteohub,2013-02-26 11:17:00,
2013-02-26 06:22:00,30.0,28.6,30.30,NW,310,0.0,0.0,94,13.68,,,99.99,meteohub,2013-02-26 11:22:00,
2013-02-26 06:27:00,30.2,28.8,30.29,NW,310,0.0,0.0,94,13.88,,,99.99,meteohub,2013-02-26 11:27:00,
2013-02-26 06:32:00,30.4,28.9,30.30,NW,310,0.0,0.0,94,13.60,,,99.99,meteohub,2013-02-26 11:32:00,
2013-02-26 06:37:00,30.4,28.9,30.30,NW,310,0.0,0.0,94,13.84,,,99.99,meteohub,2013-02-26 11:37:00,
2013-02-26 06:42:00,30.6,29.1,30.30,NW,310,0.0,0.0,94,13.36,,,99.99,meteohub,2013-02-26 11:42:00,
2013-02-26 06:47:00,30.6,29.1,30.30,NW,310,0.0,0.0,94,13.48,,,99.99,meteohub,2013-02-26 11:47:00,
2013-02-26 06:52:00,30.6,29.1,30.29,NW,310,0.0,0.0,94,13.96,,,99.99,meteohub,2013-02-26 11:52:00,
2013-02-26 06:57:00,30.7,29.3,30.29,NW,310,0.0,0.0,94,13.52,,,99.99,meteohub,2013-02-26 11:57:00,
2013-02-26 07:02:00,30.9,29.5,30.29,NW,310,0.0,0.0,94,13.76,,,99.99,meteohub,2013-02-26 12:02:00,
2013-02-26 07:07:00,30.9,29.5,30.30,NW,310,0.0,0.0,94,13.24,,,99.99,meteohub,2013-02-26 12:07:00,
2013-02-26 07:12:00,31.1,29.3,30.30,NW,310,0.0,0.0,93,13.60,,,99.99,meteohub,2013-02-26 12:12:00,
2013-02-26 07:17:00,31.3,29.5,30.30,NW,310,0.0,0.0,93,13.72,,,99.99,meteohub,2013-02-26 12:17:00,
2013-02-26 07:22:00,31.3,29.5,30.30,NW,310,0.0,0.0,93,13.24,,,99.99,meteohub,2013-02-26 12:22:00,
2013-02-26 07:27:00,31.5,29.7,30.30,NW,310,0.0,0.0,93,13.60,,,99.99,meteohub,2013-02-26 12:27:00,
2013-02-26 07:32:00,31.5,29.7,30.30,NW,310,0.0,0.0,93,13.88,,,99.99,meteohub,2013-02-26 12:32:00,
2013-02-26 07:37:00,31.6,29.8,30.30,NW,310,0.0,0.0,93,13.40,,,99.99,meteohub,2013-02-26 12:37:00,
2013-02-26 07:42:00,31.8,30.0,30.30,NW,310,0.0,0.0,93,13.76,,,99.99,meteohub,2013-02-26 12:42:00,
2013-02-26 07:47:00,32.2,30.2,30.30,NW,310,0.0,0.0,92,13.44,,,99.99,meteohub,2013-02-26 12:47:00,
2013-02-26 07:52:00,32.4,30.4,30.31,NW,310,0.0,0.0,92,13.64,,,99.99,meteohub,2013-02-26 12:52:00,
2013-02-26 07:57:00,32.7,30.4,30.31,NW,310,0.0,0.0,91,13.84,,,99.99,meteohub,2013-02-26 12:57:00,
2013-02-26 08:02:00,33.1,30.7,30.31,NW,310,0.0,0.0,91,13.36,,,99.99,meteohub,2013-02-26 13:02:00,
2013-02-26 08:07:00,33.4,30.7,30.32,NW,310,0.0,0.0,90,13.76,,,99.99,meteohub,2013-02-26 13:07:00,
2013-02-26 08:12:00,34.0,31.1,30.31,NW,310,0.0,0.0,89,13.20,,,99.99,meteohub,2013-02-26 13:12:00,
2013-02-26 08:17:00,34.3,31.1,30.32,NW,310,0.0,0.0,88,13.44,,,99.99,meteohub,2013-02-26 13:17:00,
2013-02-26 08:22:00,34.9,31.5,30.32,NW,310,0.0,0.0,87,13.80,,,99.99,meteohub,2013-02-26 13:22:00,
2013-02-26 08:27:00,35.4,31.3,30.32,NW,310,0.0,0.0,85,13.36,,,99.99,meteohub,2013-02-26 13:27:00,
2013-02-26 08:32:00,36.0,31.6,30.32,NW,310,0.0,0.0,84,13.56,,,99.99,meteohub,2013-02-26 13:32:00,
2013-02-26 08:37:00,36.3,31.6,30.32,NW,310,0.0,0.0,83,13.32,,,99.99,meteohub,2013-02-26 13:37:00,
2013-02-26 08:42:00,36.9,31.8,30.32,NW,310,0.0,0.0,82,13.56,,,99.99,meteohub,2013-02-26 13:42:00,
2013-02-26 08:47:00,37.4,31.8,30.32,NW,310,0.0,0.0,80,13.88,,,99.99,meteohub,2013-02-26 13:47:00,
2013-02-26 08:52:00,37.9,32.0,30.31,NW,310,0.0,0.0,79,13.20,,,99.99,meteohub,2013-02-26 13:52:00,
2013-02-26 08:57:00,38.5,31.8,30.31,NW,310,0.0,0.0,77,13.68,,,99.99,meteohub,2013-02-26 13:57:00,
2013-02-26 09:02:00,39.0,32.4,30.31,NW,310,0.0,0.0,77,13.88,,,99.99,meteohub,2013-02-26 14:02:00,
2013-02-26 09:07:00,39.6,32.0,30.31,NW,310,0.0,0.0,74,13.40,,,99.99,meteohub,2013-02-26 14:07:00,
2013-02-26 09:12:00,40.1,32.2,30.32,NW,310,0.0,0.0,73,13.72,,,99.99,meteohub,2013-02-26 14:12:00,
2013-02-26 09:17:00,40.6,32.4,30.32,NW,310,0.0,0.0,72,13.84,,,99.99,meteohub,2013-02-26 14:17:00,
2013-02-26 09:22:00,41.4,31.6,30.32,NW,310,0.0,0.0,68,13.48,,,99.99,meteohub,2013-02-26 14:22:00,
2013-02-26 09:27:00,41.7,30.4,30.32,NW,310,0.0,0.0,64,13.80,,,99.99,meteohub,2013-02-26 14:27:00,
2013-02-26 09:32:00,42.1,30.0,30.33,NW,310,0.0,0.0,62,13.32,,,99.99,meteohub,2013-02-26 14:32:00,
2013-02-26 09:37:00,42.1,29.1,30.33,NW,310,0.0,0.0,60,13.68,,,99.99,meteohub,2013-02-26 14:37:00,
2013-02-26 09:42:00,41.7,28.9,30.33,NW,310,0.0,0.0,60,13.80,,,99.99,meteohub,2013-02-26 14:42:00,
2013-02-26 09:47:00,41.7,28.9,30.33,NW,310,0.0,0.0,60,13.32,,,99.99,meteohub,2013-02-26 14:47:00,
2013-02-26 09:52:00,41.5,28.8,30.33,NW,310,0.0,0.0,60,13.68,,,99.99,meteohub,2013-02-26 14:52:00,
2013-02-26 09:57:00,41.5,28.2,30.32,NW,310,0.0,0.0,59,13.92,,,99.99,meteohub,2013-02-26 14:57:00,
2013-02-26 10:02:00,41.4,28.0,30.32,NW,310,0.0,0.0,59,13.44,,,99.99,meteohub,2013-02-26 15:02:00,
2013-02-26 10:07:00,41.4,28.0,30.32,NW,310,0.0,0.0,59,13.84,,,99.99,meteohub,2013-02-26 15:07:00,
2013-02-26 10:12:00,41.4,28.6,30.32,NW,310,0.0,0.0,60,13.36,,,99.99,meteohub,2013-02-26 15:12:00,
2013-02-26 10:17:00,41.4,30.0,30.32,NW,310,0.0,0.0,64,13.60,,,99.99,meteohub,2013-02-26 15:17:00,
2013-02-26 10:22:00,41.4,29.7,30.32,NW,310,0.0,0.0,63,14.00,,,99.99,meteohub,2013-02-26 15:22:00,
2013-02-26 10:27:00,41.2,30.4,30.32,NW,310,0.0,0.0,65,13.52,,,99.99,meteohub,2013-02-26 15:27:00,
2013-02-26 10:32:00,41.0,30.6,30.32,NW,310,0.0,0.0,66,13.80,,,99.99,meteohub,2013-02-26 15:32:00,
2013-02-26 10:37:00,40.6,30.6,30.32,NW,310,0.0,0.0,67,13.32,,,99.99,meteohub,2013-02-26 15:37:00,
2013-02-26 10:42:00,40.6,30.6,30.32,NW,310,0.0,0.0,67,13.56,,,99.99,meteohub,2013-02-26 15:42:00,
2013-02-26 10:47:00,40.5,31.1,30.32,NW,310,0.0,0.0,69,13.80,,,99.99,meteohub,2013-02-26 15:47:00,
2013-02-26 10:52:00,40.5,31.1,30.32,NW,310,0.0,0.0,69,13.32,,,99.99,meteohub,2013-02-26 15:52:00,
2013-02-26 10:57:00,40.3,31.3,30.32,NW,310,0.0,0.0,70,13.60,,,99.99,meteohub,2013-02-26 15:57:00,
2013-02-26 11:02:00,40.5,31.5,30.32,NW,310,0.0,0.0,70,12.88,,,99.99,meteohub,2013-02-26 16:02:00,
2013-02-26 11:07:00,40.6,32.0,30.32,NW,310,0.0,0.0,71,12.24,,,99.99,meteohub,2013-02-26 16:07:00,
2013-02-26 11:12:00,40.8,31.5,30.32,NW,310,0.0,0.0,69,12.60,,,99.99,meteohub,2013-02-26 16:12:00,
2013-02-26 11:17:00,40.8,31.5,30.32,NW,310,0.0,0.0,69,12.20,,,99.99,meteohub,2013-02-26 16:17:00,
2013-02-26 11:22:00,40.8,31.5,30.32,NW,310,0.0,0.0,69,12.32,,,99.99,meteohub,2013-02-26 16:22:00,
2013-02-26 11:27:00,40.8,31.5,30.32,NW,310,0.0,0.0,69,12.08,,,99.99,meteohub,2013-02-26 16:27:00,
2013-02-26 11:32:00,40.8,31.5,30.32,NW,310,0.0,0.0,69,12.28,,,99.99,meteohub,2013-02-26 16:32:00,
2013-02-26 11:37:00,40.8,31.8,30.32,NW,310,0.0,0.0,70,12.44,,,99.99,meteohub,2013-02-26 16:37:00,
2013-02-26 11:42:00,40.6,30.9,30.32,NW,310,0.0,0.0,68,12.08,,,99.99,meteohub,2013-02-26 16:42:00,
2013-02-26 11:47:00,40.6,31.3,30.32,NW,310,0.0,0.0,69,12.36,,,99.99,meteohub,2013-02-26 16:47:00,
2013-02-26 11:52:00,40.6,31.3,30.32,NW,310,0.0,0.0,69,12.56,,,99.99,meteohub,2013-02-26 16:52:00,
2013-02-26 11:57:00,40.6,31.6,30.32,NW,310,0.0,0.0,70,12.08,,,99.99,meteohub,2013-02-26 16:57:00,
2013-02-26 12:02:00,40.6,30.9,30.32,NW,310,0.0,0.0,68,13.52,,,99.99,meteohub,2013-02-26 17:02:00,
2013-02-26 12:07:00,40.8,31.5,30.32,NW,310,0.0,0.0,69,13.88,,,99.99,meteohub,2013-02-26 17:07:00,
2013-02-26 12:12:00,41.0,31.3,30.32,NW,310,0.0,0.0,68,13.52,,,99.99,meteohub,2013-02-26 17:12:00,
2013-02-26 12:17:00,40.8,30.7,30.31,NW,310,0.0,0.0,67,13.88,,,99.99,meteohub,2013-02-26 17:17:00,
2013-02-26 12:22:00,40.8,30.7,30.31,NW,310,0.0,0.0,67,13.28,,,99.99,meteohub,2013-02-26 17:22:00,
2013-02-26 12:27:00,41.0,31.6,30.31,NW,310,0.0,0.0,69,13.52,,,99.99,meteohub,2013-02-26 17:27:00,
2013-02-26 12:32:00,41.2,32.2,30.31,NW,310,0.0,0.0,70,13.72,,,99.99,meteohub,2013-02-26 17:32:00,
2013-02-26 12:37:00,41.4,32.0,30.31,NW,310,0.0,0.0,69,13.24,,,99.99,meteohub,2013-02-26 17:37:00,
2013-02-26 12:42:00,41.5,31.1,30.30,NW,310,0.0,0.0,66,13.60,,,99.99,meteohub,2013-02-26 17:42:00,
2013-02-26 12:47:00,41.5,31.5,30.30,NW,310,0.0,0.0,67,13.92,,,99.99,meteohub,2013-02-26 17:47:00,
2013-02-26 12:53:00,41.4,31.3,30.30,NW,310,0.0,0.0,67,13.44,,,99.99,meteohub,2013-02-26 17:53:00,
2013-02-26 12:58:00,41.2,31.1,30.30,NW,310,0.0,0.0,67,13.80,,,99.99,meteohub,2013-02-26 17:58:00,
2013-02-26 13:03:00,41.2,31.5,30.30,NW,310,0.0,0.0,68,13.32,,,99.99,meteohub,2013-02-26 18:03:00,
2013-02-26 13:08:00,41.2,31.5,30.29,NW,310,0.0,0.0,68,13.56,,,99.99,meteohub,2013-02-26 18:08:00,
2013-02-26 13:13:00,40.8,30.4,30.29,NW,310,0.0,0.0,66,13.92,,,99.99,meteohub,2013-02-26 18:13:00,
2013-02-26 13:18:00,40.8,31.1,30.29,NW,310,0.0,0.0,68,13.32,,,99.99,meteohub,2013-02-26 18:18:00,
2013-02-26 13:24:00,40.8,31.1,30.28,NW,310,0.0,0.0,68,13.80,,,99.99,meteohub,2013-02-26 18:24:00,
2013-02-26 13:29:00,40.6,31.6,30.29,NW,310,0.0,0.0,70,14.00,,,99.99,meteohub,2013-02-26 18:29:00,
2013-02-26 13:34:00,40.6,32.4,30.28,NW,310,0.0,0.0,72,13.52,,,99.99,meteohub,2013-02-26 18:34:00,
2013-02-26 13:39:00,40.3,32.7,30.28,NW,310,0.0,0.0,74,13.76,,,99.99,meteohub,2013-02-26 18:39:00,
2013-02-26 13:44:00,40.3,33.1,30.28,NW,310,0.0,0.0,75,13.28,,,99.99,meteohub,2013-02-26 18:44:00,
2013-02-26 13:49:00,40.1,33.4,30.28,NW,310,0.0,0.0,77,13.64,,,99.99,meteohub,2013-02-26 18:49:00,
2013-02-26 13:55:00,40.1,33.4,30.28,NW,310,0.0,0.0,77,14.00,,,99.99,meteohub,2013-02-26 18:55:00,
2013-02-26 14:00:00,39.9,32.9,30.27,NW,310,0.0,0.0,76,13.76,,,99.99,meteohub,2013-02-26 19:00:00,
2013-02-26 14:05:00,39.9,32.9,30.27,NW,310,0.0,0.0,76,12.56,,,99.99,meteohub,2013-02-26 19:05:00,
2013-02-26 14:10:00,40.1,33.1,30.27,NW,310,0.0,0.0,76,13.52,,,99.99,meteohub,2013-02-26 19:10:00,
2013-02-26 14:15:00,39.9,32.7,30.27,NW,310,0.0,0.0,75,13.76,,,99.99,meteohub,2013-02-26 19:15:00,
2013-02-26 14:20:00,39.7,32.5,30.27,NW,310,0.0,0.0,75,13.52,,,99.99,meteohub,2013-02-26 19:20:00,
2013-02-26 14:26:00,39.7,32.2,30.27,NW,310,0.0,0.0,74,13.80,,,99.99,meteohub,2013-02-26 19:26:00,
2013-02-26 14:31:00,39.7,32.2,30.27,NW,310,0.0,0.0,74,13.32,,,99.99,meteohub,2013-02-26 19:31:00,
2013-02-26 14:36:00,39.6,32.5,30.27,NW,310,0.0,0.0,76,12.72,,,99.99,meteohub,2013-02-26 19:36:00,
2013-02-26 14:41:00,39.6,32.9,30.27,NW,310,0.0,0.0,77,12.96,,,99.99,meteohub,2013-02-26 19:41:00,
2013-02-26 14:46:00,39.6,33.3,30.27,NW,310,0.0,0.0,78,12.52,,,99.99,meteohub,2013-02-26 19:46:00,
2013-02-26 14:51:00,39.4,33.1,30.27,NW,310,0.0,0.0,78,12.76,,,99.99,meteohub,2013-02-26 19:51:00,
2013-02-26 14:56:00,39.0,32.7,30.28,NW,310,0.0,0.0,78,12.40,,,99.99,meteohub,2013-02-26 19:56:00,
2013-02-26 15:01:00,38.8,32.9,30.28,NW,310,0.0,0.0,79,12.76,,,99.99,meteohub,2013-02-26 20:01:00,
2013-02-26 15:07:00,38.7,33.1,30.27,NW,310,0.0,0.0,80,13.00,,,99.99,meteohub,2013-02-26 20:07:00,
2013-02-26 15:12:00,38.7,33.1,30.28,NW,310,0.0,0.0,80,12.52,,,99.99,meteohub,2013-02-26 20:12:00,
2013-02-26 15:17:00,38.5,33.1,30.28,NW,310,0.0,0.0,81,12.64,,,99.99,meteohub,2013-02-26 20:17:00,
2013-02-26 15:22:00,38.5,33.1,30.28,NW,310,0.0,0.0,81,13.00,,,99.99,meteohub,2013-02-26 20:22:00,
2013-02-26 15:27:00,38.3,32.9,30.27,NW,310,0.0,0.0,81,12.64,,,99.99,meteohub,2013-02-26 20:27:00,
2013-02-26 15:32:00,38.3,32.9,30.27,NW,310,0.0,0.0,81,13.60,,,99.99,meteohub,2013-02-26 20:32:00,
2013-02-26 15:37:00,38.1,32.5,30.27,NW,310,0.0,0.0,80,12.64,,,99.99,meteohub,2013-02-26 20:37:00,
2013-02-26 15:42:00,38.1,32.2,30.27,NW,310,0.0,0.0,79,12.28,,,99.99,meteohub,2013-02-26 20:42:00,
2013-02-26 15:47:00,37.9,32.0,30.27,NW,310,0.0,0.0,79,12.64,,,99.99,meteohub,2013-02-26 20:47:00,
2013-02-26 15:52:00,37.9,32.0,30.26,NW,310,0.0,0.0,79,12.16,,,99.99,meteohub,2013-02-26 20:52:00,
2013-02-26 15:57:00,37.8,31.8,30.26,NW,310,0.0,0.0,79,12.28,,,99.99,meteohub,2013-02-26 20:57:00,
2013-02-26 16:02:00,37.8,32.2,30.26,NW,310,0.0,0.0,80,12.76,,,99.99,meteohub,2013-02-26 21:02:00,
2013-02-26 16:07:00,37.8,32.2,30.25,NW,310,0.0,0.0,80,12.28,,,99.99,meteohub,2013-02-26 21:07:00,
2013-02-26 16:12:00,37.8,31.8,30.25,NW,310,0.0,0.0,79,12.52,,,99.99,meteohub,2013-02-26 21:12:00,
2013-02-26 16:17:00,37.6,31.6,30.24,NW,310,0.0,0.0,79,12.68,,,99.99,meteohub,2013-02-26 21:17:00,
2013-02-26 16:22:00,37.6,31.3,30.24,NW,310,0.0,0.0,78,12.32,,,99.99,meteohub,2013-02-26 21:22:00,
2013-02-26 16:28:00,37.6,31.1,30.24,NW,310,0.0,0.0,77,12.56,,,99.99,meteohub,2013-02-26 21:28:00,
2013-02-26 16:33:00,37.6,30.4,30.24,NW,310,0.0,0.0,75,12.32,,,99.99,meteohub,2013-02-26 21:33:00,
2013-02-26 16:38:00,37.6,29.7,30.24,NW,310,0.0,0.0,73,13.76,,,99.99,meteohub,2013-02-26 21:38:00,
2013-02-26 16:43:00,37.4,29.1,30.24,NW,310,0.0,0.0,72,13.88,,,99.99,meteohub,2013-02-26 21:43:00,
2013-02-26 16:48:00,37.4,29.1,30.24,NW,310,0.0,0.0,72,13.48,,,99.99,meteohub,2013-02-26 21:48:00,
2013-02-26 16:53:00,37.2,28.8,30.23,NW,310,0.0,0.0,71,13.72,,,99.99,meteohub,2013-02-26 21:53:00,
2013-02-26 16:58:00,37.2,29.1,30.23,NW,310,0.0,0.0,72,13.96,,,99.99,meteohub,2013-02-26 21:58:00,
2013-02-26 17:04:00,37.0,28.9,30.23,NW,310,0.0,0.0,72,13.48,,,99.99,meteohub,2013-02-26 22:04:00,
2013-02-26 17:09:00,37.0,29.1,30.23,NW,310,0.0,0.0,73,13.72,,,99.99,meteohub,2013-02-26 22:09:00,
2013-02-26 17:14:00,37.0,28.9,30.23,NW,310,0.0,0.0,72,13.36,,,99.99,meteohub,2013-02-26 22:14:00,
2013-02-26 17:19:00,36.9,28.8,30.24,NW,310,0.0,0.0,72,13.68,,,99.99,meteohub,2013-02-26 22:19:00,
2013-02-26 17:24:00,36.9,28.9,30.23,NW,310,0.0,0.0,73,13.92,,,99.99,meteohub,2013-02-26 22:24:00,
2013-02-26 17:29:00,36.7,28.8,30.23,NW,310,0.0,0.0,73,13.44,,,99.99,meteohub,2013-02-26 22:29:00,
2013-02-26 17:35:00,36.7,28.8,30.23,NW,310,0.0,0.0,73,13.68,,,99.99,meteohub,2013-02-26 22:35:00,
2013-02-26 17:40:00,36.5,28.9,30.23,NW,310,0.0,0.0,74,13.56,,,99.99,meteohub,2013-02-26 22:40:00,
2013-02-26 17:45:00,36.3,29.1,30.23,NW,310,0.0,0.0,75,13.92,,,99.99,meteohub,2013-02-26 22:45:00,
2013-02-26 17:50:00,36.3,29.1,30.23,NW,310,0.0,0.0,75,13.56,,,99.99,meteohub,2013-02-26 22:50:00,
2013-02-26 17:55:00,36.1,29.3,30.22,NW,310,0.0,0.0,76,13.80,,,99.99,meteohub,2013-02-26 22:55:00,
2013-02-26 18:00:00,36.1,29.7,30.22,NW,310,0.0,0.0,77,14.04,,,99.99,meteohub,2013-02-26 23:00:00,
2013-02-26 18:06:00,36.0,29.5,30.22,NW,310,0.0,0.0,77,13.44,,,99.99,meteohub,2013-02-26 23:06:00,
2013-02-26 18:11:00,36.0,29.8,30.21,NW,310,0.0,0.0,78,13.80,,,99.99,meteohub,2013-02-26 23:11:00,
2013-02-26 18:16:00,36.0,29.8,30.20,NW,310,0.0,0.0,78,13.32,,,99.99,meteohub,2013-02-26 23:16:00,
2013-02-26 18:21:00,36.0,30.0,30.20,NW,310,0.0,0.0,79,13.68,,,99.99,meteohub,2013-02-26 23:21:00,
2013-02-26 18:26:00,36.0,30.0,30.21,NW,310,0.0,0.0,79,13.92,,,99.99,meteohub,2013-02-26 23:26:00,
2013-02-26 18:31:00,35.8,29.8,30.21,NW,310,0.0,0.0,79,13.32,,,99.99,meteohub,2013-02-26 23:31:00,
2013-02-26 18:36:00,35.8,29.8,30.22,NW,310,0.0,0.0,79,13.56,,,99.99,meteohub,2013-02-26 23:36:00,
2013-02-26 18:42:00,35.8,30.2,30.21,NW,310,0.0,0.0,80,13.92,,,99.99,meteohub,2013-02-26 23:42:00,
2013-02-26 18:47:00,35.8,30.2,30.21,NW,310,0.0,0.0,80,12.72,,,99.99,meteohub,2013-02-26 23:47:00,
2013-02-26 18:52:00,35.8,30.2,30.21,NW,310,0.0,0.0,80,13.80,,,99.99,meteohub,2013-02-26 23:52:00,
2013-02-26 18:57:00,35.8,30.2,30.21,NW,310,0.0,0.0,80,13.44,,,99.99,meteohub,2013-02-26 23:57:00,
2013-02-26 19:02:00,35.8,30.2,30.21,NW,310,0.0,0.0,80,13.56,,,99.99,meteohub,2013-02-27 00:02:00,
2013-02-26 19:07:00,35.8,30.2,30.20,NW,310,0.0,0.0,80,12.84,,,0.48,meteohub,2013-02-27 00:07:00,
2013-02-26 19:12:00,35.6,30.0,30.19,NW,310,0.0,0.0,80,12.36,,,1.20,meteohub,2013-02-27 00:12:00,
2013-02-26 19:17:00,35.6,30.0,30.19,NW,310,0.0,0.0,80,12.60,,,2.64,meteohub,2013-02-27 00:17:00,
2013-02-26 19:22:00,35.6,30.0,30.19,NW,310,0.0,0.0,80,12.88,,,3.36,meteohub,2013-02-27 00:22:00,
2013-02-26 19:27:00,35.6,29.7,30.19,NW,310,0.0,0.0,79,12.52,,,4.84,meteohub,2013-02-27 00:27:00,
2013-02-26 19:32:00,35.6,29.7,30.19,NW,310,0.0,0.0,79,12.76,,,6.28,meteohub,2013-02-27 00:32:00,
2013-02-26 19:37:00,35.6,29.7,30.19,NW,310,0.0,0.0,79,12.40,,,7.00,meteohub,2013-02-27 00:37:00,
2013-02-26 19:42:00,35.6,29.7,30.19,NW,310,0.0,0.0,79,12.64,,,8.44,meteohub,2013-02-27 00:42:00,
2013-02-26 19:47:00,35.8,29.7,30.19,NW,310,0.0,0.0,78,12.88,,,9.88,meteohub,2013-02-27 00:47:00,
2013-02-26 19:52:00,35.6,29.5,30.19,NW,310,0.0,0.0,78,12.40,,,10.60,meteohub,2013-02-27 00:52:00,
2013-02-26 19:57:00,35.6,29.5,30.18,NW,310,0.0,0.0,78,12.64,,,12.04,meteohub,2013-02-27 00:57:00,
2013-02-26 20:02:00,35.6,29.5,30.18,NW,310,0.0,0.0,78,12.88,,,12.88,meteohub,2013-02-27 01:02:00,
2013-02-26 20:07:00,35.6,29.5,30.18,NW,310,0.0,0.0,78,13.60,,,14.32,meteohub,2013-02-27 01:07:00,
2013-02-26 20:12:00,35.6,29.5,30.19,NW,310,0.0,0.0,78,13.96,,,15.76,meteohub,2013-02-27 01:12:00,
2013-02-26 20:17:00,35.6,29.7,30.19,NW,310,0.0,0.0,79,13.48,,,16.48,meteohub,2013-02-27 01:17:00,
2013-02-26 20:22:00,35.8,29.7,30.19,NW,310,0.0,0.0,78,13.68,,,17.92,meteohub,2013-02-27 01:22:00,
2013-02-26 20:27:00,35.8,29.7,30.18,NW,310,0.0,0.0,78,13.92,,,19.36,meteohub,2013-02-27 01:27:00,
2013-02-26 20:32:00,35.8,29.7,30.18,NW,310,0.0,0.0,78,13.44,,,20.08,meteohub,2013-02-27 01:32:00,
2013-02-26 20:37:00,35.8,29.8,30.17,NW,310,0.0,0.0,79,13.80,,,21.52,meteohub,2013-02-27 01:37:00,
2013-02-26 20:42:00,35.8,29.8,30.18,NW,310,0.0,0.0,79,13.36,,,22.16,meteohub,2013-02-27 01:42:00,
2013-02-26 20:47:00,35.8,29.8,30.18,NW,310,0.0,0.0,79,13.72,,,23.72,meteohub,2013-02-27 01:47:00,
2013-02-26 20:52:00,35.8,29.8,30.17,NW,310,0.0,0.0,79,13.84,,,25.04,meteohub,2013-02-27 01:52:00,
2013-02-26 20:57:00,35.8,30.2,30.17,NW,310,0.0,0.0,80,13.36,,,25.76,meteohub,2013-02-27 01:57:00,
2013-02-26 21:02:00,35.8,30.6,30.16,NW,310,0.0,0.0,81,13.56,,,27.16,meteohub,2013-02-27 02:02:00,
2013-02-26 21:07:00,35.4,30.6,30.16,NW,310,0.0,0.0,82,13.92,,,28.72,meteohub,2013-02-27 02:07:00,
2013-02-26 21:13:00,35.4,31.1,30.15,NW,310,0.0,0.0,84,13.56,,,29.44,meteohub,2013-02-27 02:13:00,
2013-02-26 21:18:00,35.2,31.1,30.15,NW,310,0.0,0.0,85,13.72,,,30.80,meteohub,2013-02-27 02:18:00,
2013-02-26 21:23:00,35.1,31.3,30.14,NW,310,0.0,0.0,86,13.36,,,31.64,meteohub,2013-02-27 02:23:00,
2013-02-26 21:28:00,34.9,31.5,30.14,NW,310,0.0,0.0,87,12.76,,,32.24,meteohub,2013-02-27 02:28:00,
2013-02-26 21:33:00,34.7,31.5,30.14,NW,310,0.0,0.0,88,13.72,,,34.40,meteohub,2013-02-27 02:33:00,
2013-02-26 21:38:00,34.5,31.6,30.14,NW,310,0.0,0.0,89,13.32,,,35.12,meteohub,2013-02-27 02:38:00,
2013-02-26 21:43:00,34.5,31.6,30.13,NW,310,0.0,0.0,89,13.56,,,36.56,meteohub,2013-02-27 02:43:00,
2013-02-26 21:48:00,34.5,31.8,30.13,NW,310,0.0,0.0,90,14.04,,,38.12,meteohub,2013-02-27 02:48:00,
2013-02-26 21:53:00,34.5,31.8,30.13,NW,310,0.0,0.0,90,13.56,,,38.84,meteohub,2013-02-27 02:53:00,
2013-02-26 21:58:00,34.3,31.6,30.12,NW,310,0.0,0.0,90,13.72,,,40.16,meteohub,2013-02-27 02:58:00,
2013-02-26 22:03:00,34.3,31.6,30.12,NW,310,0.0,0.0,90,13.28,,,40.92,meteohub,2013-02-27 03:03:00,
2013-02-26 22:09:00,34.3,31.6,30.11,NW,310,0.0,0.0,90,12.80,,,41.64,meteohub,2013-02-27 03:09:00,
2013-02-26 22:14:00,34.3,31.6,30.11,NW,310,0.0,0.0,90,13.76,,,43.84,meteohub,2013-02-27 03:14:00,
2013-02-26 22:19:00,34.5,31.6,30.10,NW,310,0.0,0.0,89,13.40,,,44.56,meteohub,2013-02-27 03:19:00,
2013-02-26 22:24:00,34.5,31.6,30.09,NW,310,0.0,0.0,89,13.76,,,46.00,meteohub,2013-02-27 03:24:00,
2013-02-26 22:29:00,34.5,31.8,30.09,NW,310,0.0,0.0,90,14.00,,,46.72,meteohub,2013-02-27 03:29:00,
2013-02-26 22:34:00,34.5,31.6,30.09,NW,310,0.0,0.0,89,13.64,,,48.28,meteohub,2013-02-27 03:34:00,
2013-02-26 22:39:00,34.5,31.6,30.09,NW,310,0.0,0.0,89,13.92,,,49.76,meteohub,2013-02-27 03:39:00,
2013-02-26 22:45:00,34.7,31.8,30.08,NW,310,0.0,0.0,89,13.44,,,50.48,meteohub,2013-02-27 03:45:00,
2013-02-26 22:50:00,34.5,31.8,30.08,NW,310,0.0,0.0,90,13.80,,,53.24,meteohub,2013-02-27 03:50:00,
2013-02-26 22:55:00,34.5,31.8,30.08,NW,310,0.0,0.0,90,13.56,,,54.08,meteohub,2013-02-27 03:55:00,
2013-02-26 23:00:00,34.5,31.8,30.08,NW,310,0.0,0.0,90,13.76,,,55.52,meteohub,2013-02-27 04:00:00,
2013-02-26 23:05:00,34.5,32.2,30.08,NW,310,0.0,0.0,91,13.24,,,56.12,meteohub,2013-02-27 04:05:00,
2013-02-26 23:10:00,34.5,32.2,30.08,NW,310,0.0,0.0,91,13.48,,,57.56,meteohub,2013-02-27 04:10:00,
2013-02-26 23:16:00,34.3,32.2,30.08,NW,310,0.0,0.0,92,13.76,,,59.04,meteohub,2013-02-27 04:16:00,
2013-02-26 23:21:00,34.3,32.2,30.07,NW,310,0.0,0.0,92,13.52,,,59.88,meteohub,2013-02-27 04:21:00,
2013-02-26 23:26:00,34.2,32.4,30.06,NW,310,0.0,0.0,93,13.92,,,61.36,meteohub,2013-02-27 04:26:00,
2013-02-26 23:31:00,34.2,32.4,30.06,NW,310,0.0,0.0,93,13.40,,,62.08,meteohub,2013-02-27 04:31:00,
2013-02-26 23:36:00,34.2,32.4,30.06,NW,310,0.0,0.0,93,13.64,,,63.52,meteohub,2013-02-27 04:36:00,
2013-02-26 23:42:00,34.2,32.5,30.06,NW,310,0.0,0.0,94,13.80,,,64.88,meteohub,2013-02-27 04:42:00,
2013-02-26 23:47:00,34.2,32.5,30.05,NW,310,0.0,0.0,94,13.44,,,65.72,meteohub,2013-02-27 04:47:00,
2013-02-26 23:52:00,34.2,32.5,30.04,NW,310,0.0,0.0,94,13.68,,,67.16,meteohub,2013-02-27 04:52:00,
2013-02-26 23:57:00,34.2,32.5,30.03,NW,310,0.0,0.0,94,13.32,,,67.88,meteohub,2013-02-27 04:57:00,